GFSSGP_925_spd_198.txt.gz
Wind_Speed
13 14 13 6 1 2 9 8 15 13 14 6 10 13 12 13 4 10 16 19 20 18 14 11 13 12 12 12 12 11 11 11 10 12 11 10 12 12 13 13 12 11 10 9 8 7 6 5 5
14 14 3 2 2 5 7 13 14 14 15 14 17 18 11 5 2 18 12 19 22 17 16 12 12 12 11 11 12 11 11 11 12 11 12 12 12 12 11 10 11 10 8 7 6 5 5 3 2
15 20 3 2 4 7 5 6 13 20 20 13 7 11 10 6 11 7 19 16 22 20 16 14 11 13 12 11 12 12 12 10 10 10 10 11 11 9 10 8 9 8 6 5 3 2 2 1 1
8 7 2 3 17 13 6 13 20 19 16 8 17 12 8 6 3 14 21 18 17 19 16 13 11 12 12 11 11 11 11 10 11 10 10 9 8 8 9 6 6 5 4 3 1 1 3 2 3
8 3 3 6 18 15 8 18 14 18 15 10 13 12 9 3 14 21 20 21 18 20 16 12 12 12 13 12 10 11 11 11 9 10 8 7 7 7 6 5 4 3 1 0 2 3 4 5 6
7 1 5 3 20 23 21 20 17 7 15 17 13 14 6 11 16 16 16 18 20 20 16 12 11 12 12 11 11 10 10 10 8 8 6 5 5 6 6 5 3 1 1 3 4 5 5 6 7
9 3 7 13 13 11 20 18 18 13 15 13 19 7 8 10 22 11 14 8 22 20 16 12 10 13 12 11 9 8 8 7 6 6 7 7 8 7 7 8 4 1 2 4 5 6 7 7 8
6 4 15 9 10 3 16 10 15 15 14 17 19 9 13 21 20 15 16 21 21 18 15 16 13 13 12 10 8 8 8 8 6 5 3 6 6 5 2 4 2 1 2 5 7 8 8 10 11
11 4 7 7 9 8 14 20 10 15 17 15 13 15 28 31 22 22 16 14 16 16 17 15 11 13 15 8 8 10 9 6 2 3 4 4 2 3 3 3 4 4 4 5 7 9 7 10 10
5 7 12 9 15 15 15 16 12 14 15 9 16 26 36 31 29 24 20 15 16 17 17 14 14 12 14 12 7 7 5 4 4 5 10 11 11 7 10 10 4 6 5 4 12 10 8 14 7
5 4 11 13 12 8 17 12 14 15 11 18 18 25 29 29 26 20 25 20 18 21 24 20 17 15 13 10 10 9 7 4 6 9 7 11 6 6 8 5 11 6 1 6 6 9 10 8 3
6 9 14 11 11 9 14 9 21 19 5 20 22 25 23 23 21 20 19 22 19 18 20 16 14 11 14 8 9 6 8 7 7 6 11 13 4 8 10 7 10 10 2 4 6 6 5 5 1
2 5 8 8 13 11 10 10 19 17 15 21 22 24 23 20 24 25 23 22 19 17 15 19 14 7 11 3 10 7 0 3 13 8 10 7 10 11 15 5 3 12 14 12 8 5 6 10 8
11 17 8 12 11 5 12 9 9 10 16 20 20 21 21 20 24 25 17 20 20 19 17 16 14 11 8 4 9 7 2 4 13 10 8 9 12 10 8 12 9 11 9 5 8 6 5 12 10
16 17 8 10 11 10 8 9 7 12 16 17 20 20 21 22 23 16 22 15 13 18 17 18 16 13 9 9 6 5 4 1 8 7 9 9 5 3 8 6 7 11 13 8 10 15 15 10 14
15 25 8 9 10 9 12 4 18 11 16 17 19 20 18 21 24 22 24 18 15 19 21 19 17 16 12 11 8 3 5 1 3 10 9 7 6 14 11 8 10 11 13 13 17 17 19 16 16
20 8 15 7 16 10 11 15 9 13 15 17 18 20 15 16 23 25 28 24 18 16 23 20 18 17 14 12 6 3 3 5 0 7 10 5 8 13 3 11 9 12 15 12 14 17 19 17 19
5 9 6 13 8 18 14 14 14 18 20 19 18 21 18 16 12 26 24 27 22 17 23 20 16 20 15 13 10 7 7 2 3 5 9 5 7 7 8 3 6 7 8 13 14 13 16 16 17
7 8 11 21 18 22 6 19 24 23 20 21 19 19 22 21 17 23 21 22 25 22 23 20 15 19 17 15 11 12 16 9 7 3 3 2 4 8 12 10 9 9 7 8 11 14 15 13 12
15 7 25 19 14 12 6 18 27 25 23 23 24 21 24 23 20 21 19 23 28 25 23 22 19 18 17 13 15 10 10 10 7 9 5 2 1 5 7 8 10 8 9 4 9 10 15 11 8
20 22 27 22 20 15 9 11 24 25 21 23 21 22 21 25 25 21 22 22 26 27 28 26 21 20 19 15 12 5 2 5 2 3 6 6 1 3 3 4 6 9 13 7 10 11 10 13 15
22 24 25 16 11 12 13 9 3 22 23 24 24 22 23 22 21 21 21 24 25 28 28 27 24 22 21 17 15 12 8 9 14 13 13 7 4 3 3 2 5 6 8 7 9 11 11 14 14
22 24 19 17 10 14 12 10 13 23 23 23 25 25 24 23 23 23 24 27 28 27 29 28 29 23 22 19 14 16 14 11 5 5 7 4 8 7 4 2 3 5 8 7 6 8 9 12 12
22 25 23 15 12 14 18 15 13 12 15 22 22 24 25 25 23 24 31 34 31 28 29 30 30 28 24 23 22 14 16 14 6 11 6 8 13 11 10 3 1 4 4 5 4 5 8 9 9
23 22 14 13 14 13 18 16 6 16 6 16 22 23 23 23 22 24 24 30 34 31 31 32 32 29 28 22 22 23 16 13 11 5 7 7 9 4 11 4 1 3 3 6 3 5 5 7 6
26 23 15 17 15 16 7 10 1 21 18 32 28 23 23 23 21 22 25 28 32 29 31 31 33 31 29 27 24 22 24 16 14 10 12 11 10 5 5 2 2 5 5 4 3 1 4 6 5
25 21 23 25 21 6 8 6 9 21 20 17 21 24 23 22 22 22 21 28 31 31 31 31 33 32 31 29 27 26 23 23 19 18 18 15 15 10 10 5 6 4 4 3 4 1 1 2 2
29 18 20 17 23 11 3 4 13 11 16 17 16 25 23 22 21 21 20 27 28 30 30 30 30 33 31 29 28 27 26 25 25 18 16 16 11 10 8 5 6 4 5 6 4 5 4 1 1
19 21 20 22 17 14 12 6 10 16 20 17 14 24 24 23 20 20 19 30 31 31 31 32 31 32 30 30 28 27 27 26 24 25 20 18 17 13 10 10 11 7 8 8 6 5 3 2 1
26 26 26 16 19 15 8 5 1 17 24 14 13 24 23 22 20 19 19 28 30 31 32 33 31 31 32 29 28 29 27 26 25 24 23 21 18 16 13 12 10 10 9 10 8 6 5 5 4

GFSSGP_925_spd_201.txt.gz
Wind_Speed
14 12 6 2 2 2 5 9 14 11 6 2 12 11 10 4 2 6 20 28 23 19 18 17 14 13 14 12 11 11 12 11 13 11 12 12 12 13 12 11 11 10 9 9 9 9 8 7 5
17 13 7 3 2 4 7 12 16 13 11 15 15 13 8 5 5 10 16 27 21 20 16 16 15 14 12 12 11 11 11 12 12 11 12 11 11 10 10 10 8 9 8 8 8 7 5 5 4
15 11 2 2 3 3 4 16 16 15 17 8 6 11 7 12 7 8 27 28 28 21 16 15 14 13 12 12 12 12 11 11 11 10 9 11 9 9 9 8 7 7 6 5 5 4 3 3 3
6 4 3 3 7 4 3 18 20 14 13 5 14 10 5 3 4 16 28 28 23 18 17 15 15 14 13 13 13 12 11 11 11 9 9 8 7 7 6 6 5 5 4 3 3 2 2 2 3
11 3 4 3 3 7 7 18 18 12 7 11 10 8 4 2 22 25 25 26 23 18 17 15 13 14 12 12 12 11 11 9 8 9 7 7 6 5 3 3 4 2 1 1 1 1 1 3 4
7 3 3 2 7 9 12 16 7 12 14 12 10 9 3 5 23 25 26 27 21 19 17 16 13 14 12 12 13 10 10 8 8 7 5 5 4 3 2 1 1 2 1 1 1 2 3 5 7
8 2 3 6 10 2 13 15 9 17 12 9 17 6 2 3 18 15 19 26 20 19 18 15 14 14 12 12 11 9 8 8 7 5 4 3 3 2 0 5 4 3 3 3 3 3 7 9 10
10 4 8 6 9 6 7 12 13 13 6 18 15 8 9 15 17 21 28 23 23 20 14 14 15 14 12 11 10 9 8 7 5 3 5 3 1 5 9 6 9 6 6 7 6 5 6 4 5
6 4 1 7 7 13 11 14 13 13 14 8 10 11 22 27 22 28 25 24 22 20 15 15 16 14 11 9 12 11 8 6 5 3 12 2 4 3 4 3 5 3 3 6 5 3 2 4 8
5 4 5 8 6 12 17 18 15 11 16 7 15 22 30 26 22 21 20 19 19 21 21 17 15 15 12 12 12 10 6 4 4 5 8 8 8 3 6 1 3 1 2 3 6 5 7 9 7
10 6 7 12 7 18 16 20 16 18 15 20 24 24 22 22 22 18 19 21 25 23 20 20 18 17 16 8 9 10 6 5 6 7 6 4 4 5 4 1 3 5 5 4 7 6 2 8 5
4 15 15 10 8 13 19 12 11 13 14 22 24 25 19 18 13 19 21 23 23 24 23 20 14 19 17 7 7 13 8 12 7 10 9 11 7 5 6 3 6 11 2 2 9 10 7 5 5
3 2 8 18 14 8 19 14 12 14 18 23 23 21 18 16 17 21 27 29 25 27 24 23 15 16 13 9 15 11 7 10 7 8 10 11 13 9 11 6 3 11 10 8 6 7 10 11 7
6 8 9 11 7 10 17 5 13 13 24 24 24 20 17 16 16 19 20 24 19 26 32 25 19 14 12 13 10 10 5 7 12 10 9 14 10 9 15 12 8 7 8 6 8 13 10 16 13
2 4 9 6 7 17 12 6 4 17 21 24 23 20 18 19 24 20 22 21 27 32 28 22 18 14 12 12 12 7 4 8 10 11 13 11 6 10 12 12 11 15 13 18 12 15 14 14 18
3 4 3 4 8 6 9 3 10 11 22 20 20 18 15 11 22 24 17 22 33 31 28 22 19 15 10 14 10 3 6 6 13 11 10 11 7 6 10 10 11 14 12 15 13 15 19 17 19
2 1 3 11 2 2 4 3 12 7 19 20 20 19 18 16 15 18 18 15 28 31 28 23 22 18 12 13 7 3 4 7 11 11 10 7 8 8 11 7 8 12 10 15 16 17 17 16 20
2 6 1 5 8 13 8 8 7 13 19 18 19 21 20 17 17 23 25 20 24 32 26 26 27 22 17 12 9 5 7 2 12 12 10 6 6 7 11 9 6 12 11 14 14 17 15 13 17
3 7 8 6 18 14 12 9 11 16 13 18 16 21 19 20 19 25 29 28 27 31 25 26 29 26 20 18 12 7 8 7 12 11 5 6 3 4 9 9 11 12 12 11 13 17 16 17 18
12 10 4 6 12 7 19 12 17 19 19 20 18 20 20 18 14 25 26 28 32 33 28 26 27 26 21 20 17 10 10 6 14 11 5 5 1 4 7 9 10 10 12 8 13 14 15 14 18
16 9 10 11 6 14 14 14 15 19 14 16 16 17 19 21 18 20 21 30 29 34 34 29 27 25 22 18 16 7 6 10 11 8 7 6 3 2 2 3 7 9 11 11 11 12 13 13 14
16 14 14 18 8 13 11 4 21 20 18 19 18 16 22 21 20 16 19 28 30 32 37 34 26 26 24 20 16 13 9 7 4 8 8 7 5 5 2 2 3 5 8 7 8 10 11 11 14
17 19 18 18 14 13 13 6 11 22 21 22 21 20 16 21 23 21 21 27 31 34 36 38 31 27 27 24 15 15 14 10 6 10 14 12 8 9 5 5 2 2 3 3 4 6 9 9 10
17 18 17 14 10 9 10 6 5 21 28 20 19 21 22 17 24 22 30 29 29 34 34 38 36 31 28 27 21 17 17 15 4 13 11 7 9 13 9 8 3 1 1 2 3 5 7 9 10
19 12 8 5 5 6 10 5 3 6 17 23 17 21 24 21 23 22 22 26 30 30 34 37 39 35 31 28 27 20 20 19 13 6 12 10 8 7 16 11 5 3 1 2 2 5 3 7 8
16 13 7 7 6 8 5 1 1 12 19 24 26 22 24 25 23 25 24 31 33 31 36 36 38 36 37 31 31 27 23 18 14 13 11 11 9 4 14 6 4 5 2 1 1 3 3 5 6
19 13 11 8 15 5 4 2 5 3 9 15 11 11 20 26 25 24 27 34 35 37 36 37 38 36 40 38 31 30 29 25 21 19 17 17 15 9 8 8 7 6 3 2 2 2 1 3 3
11 11 8 7 11 9 3 5 6 11 15 12 6 11 13 26 25 24 25 35 37 39 35 38 40 38 38 40 38 32 30 29 29 25 22 18 17 12 9 8 8 9 4 4 4 3 3 0 2
15 13 10 4 6 6 4 6 8 12 10 11 12 17 21 26 26 24 25 36 40 37 35 34 38 37 36 38 37 36 36 32 30 29 26 21 18 15 13 12 10 11 7 6 6 4 5 3 0
19 11 13 9 8 5 4 5 4 10 3 4 7 11 25 25 24 23 22 33 37 36 34 33 38 38 38 39 36 35 34 35 34 33 32 26 21 26 22 17 16 15 9 8 10 7 8 6 3

GFSSGP_925_spd_207.txt.gz
Wind_Speed
20 18 12 4 1 2 2 1 2 4 3 1 1 3 7 5 3 3 13 11 18 16 15 14 14 13 12 12 13 14 13 14 15 15 14 14 13 12 11 12 12 12 12 10 10 9 8 8 9
20 14 3 2 2 2 1 4 6 4 8 11 9 5 4 4 4 11 12 20 18 18 16 15 14 13 12 12 12 13 13 13 15 14 14 13 12 10 10 11 11 10 10 10 9 7 7 9 6
11 4 2 2 1 1 3 6 6 8 12 4 5 6 4 3 7 12 16 22 20 17 16 15 14 13 12 12 12 13 12 12 12 13 13 12 10 10 9 9 9 8 7 7 7 6 5 6 5
6 2 3 3 5 2 3 8 5 10 4 7 10 9 5 4 3 10 26 24 22 18 16 13 13 13 13 12 11 11 11 11 11 11 10 10 9 7 7 7 7 6 5 5 5 5 3 2 3
3 1 4 4 4 0 1 9 12 10 4 6 2 4 4 3 14 26 26 24 22 19 15 14 12 13 12 11 11 11 10 11 10 8 8 7 7 7 6 5 3 3 2 2 2 1 2 4 4
3 2 4 5 7 4 5 10 7 6 9 7 6 6 3 14 27 27 24 23 20 20 18 14 12 13 11 10 10 9 9 10 8 7 7 6 5 5 5 4 2 0 1 1 2 1 1 4 5
3 4 2 3 5 3 6 3 4 5 9 4 13 4 3 13 23 24 23 21 20 18 16 15 12 11 11 10 9 9 9 9 8 4 5 3 3 3 3 3 2 1 2 2 2 1 2 6 3
3 3 6 5 3 4 3 1 5 5 4 14 10 6 7 17 23 24 21 19 19 17 15 15 12 12 12 10 8 8 8 7 6 3 1 1 1 2 1 1 2 2 1 1 2 3 4 3 1
3 3 5 7 4 4 8 5 6 5 13 5 6 5 17 26 26 24 20 18 17 15 15 15 13 12 11 10 9 8 7 5 3 3 5 3 2 4 5 6 4 3 2 3 4 2 2 2 1
3 3 7 18 12 4 10 8 11 6 11 3 7 15 25 23 25 20 16 16 17 16 16 16 14 13 12 10 9 7 5 5 3 4 5 6 7 7 5 4 3 2 2 3 3 1 2 5 1
5 4 7 11 17 9 8 10 12 9 9 6 19 20 18 21 20 20 18 25 23 19 17 17 15 14 12 10 9 8 6 5 4 5 6 7 9 9 7 7 4 2 4 2 2 3 2 4 5
4 13 8 9 14 10 9 6 13 10 5 12 17 25 18 16 15 20 19 19 21 21 18 17 15 14 12 9 7 7 6 5 5 8 8 6 7 8 8 8 9 8 5 0 3 3 2 3 5
6 4 7 7 16 12 8 13 9 8 5 16 19 19 17 15 17 21 24 24 23 22 19 17 15 14 11 8 7 5 6 5 4 5 7 9 9 9 7 8 9 7 5 5 5 4 3 1 9
5 5 2 10 13 7 9 4 6 2 10 17 21 18 15 15 20 18 19 22 24 23 20 17 17 14 12 11 8 5 5 5 5 6 8 10 8 8 10 9 8 13 10 6 7 5 6 6 2
6 4 6 14 4 4 7 3 2 9 12 18 17 15 14 12 19 19 24 26 26 23 21 19 19 16 13 14 12 6 4 5 6 6 6 6 8 10 8 10 9 12 9 5 6 11 8 7 5
5 5 4 3 8 5 6 5 10 11 15 15 15 14 13 12 19 20 24 27 28 25 22 22 21 20 15 16 12 6 6 6 7 6 6 7 6 7 7 8 7 10 10 9 6 7 9 10 5
6 3 2 3 7 7 2 2 12 13 13 15 14 15 12 13 12 19 21 26 29 28 24 26 27 23 18 15 13 7 8 9 7 6 5 5 5 8 7 8 10 8 11 12 11 10 10 11 7
1 2 1 6 4 4 7 6 16 16 14 16 17 14 13 14 15 17 21 24 26 32 31 31 28 24 21 17 12 7 8 9 12 8 6 4 4 5 7 8 6 6 9 12 10 12 12 16 19
2 1 6 4 2 1 3 2 15 18 14 14 16 15 16 16 17 17 23 25 26 31 38 33 28 24 23 21 14 9 11 10 13 11 8 5 2 2 3 4 5 5 7 11 7 10 12 12 7
4 4 7 5 5 6 6 8 9 21 23 23 21 19 18 16 11 13 24 26 28 33 40 33 29 27 24 25 18 10 10 7 11 13 10 6 2 2 2 3 5 7 6 7 8 6 6 10 9
4 6 5 7 2 4 2 6 6 12 12 18 19 20 18 21 18 13 19 26 28 32 38 35 31 27 27 25 19 10 7 7 12 14 11 8 4 2 1 3 4 3 4 6 8 7 4 4 10
5 8 5 6 1 4 4 5 4 6 19 22 20 20 20 19 18 15 20 26 31 34 38 37 33 27 28 26 22 16 10 9 14 17 12 8 5 4 2 2 3 1 2 4 5 6 5 3 6
9 5 9 7 5 5 2 3 6 4 8 16 21 22 22 21 21 19 21 30 34 35 38 39 36 31 27 26 26 19 13 12 14 15 13 12 9 8 6 5 3 1 2 1 3 4 6 5 6
8 4 3 2 3 1 18 6 17 6 9 15 19 23 24 23 21 20 28 31 31 34 36 37 38 37 32 27 29 25 20 16 15 13 14 15 13 10 9 8 7 3 2 1 2 3 6 5 5
4 6 2 3 1 9 7 6 17 10 14 15 25 25 25 23 22 20 20 26 31 33 34 36 38 39 37 32 30 29 25 21 19 16 14 14 12 10 10 11 12 8 5 4 3 2 3 4 4
8 9 6 7 4 3 3 7 10 9 7 11 20 25 23 22 22 23 23 30 32 35 35 36 36 36 41 37 34 31 27 25 24 21 16 15 14 11 9 9 13 10 9 7 5 4 3 3 4
6 5 8 5 1 2 4 8 11 4 5 8 16 19 20 21 21 22 22 31 33 34 38 38 37 36 41 41 37 35 31 28 27 25 22 17 14 12 6 8 12 11 11 10 7 7 5 4 4
9 7 4 2 6 5 5 5 6 5 7 6 14 17 19 21 21 20 19 29 32 36 37 38 39 40 41 43 42 39 36 33 29 27 27 23 18 15 11 11 13 14 14 12 11 9 9 7 7
1 3 3 4 6 8 4 6 8 12 8 14 17 21 23 21 22 22 22 33 35 35 36 36 36 37 35 39 42 41 40 38 34 31 31 28 23 20 16 14 15 19 18 16 13 11 11 10 9
9 10 9 6 6 2 3 9 6 11 9 13 16 15 15 18 22 24 23 31 34 35 35 35 36 35 38 41 39 40 41 39 39 37 35 33 30 25 21 18 16 21 21 18 15 13 14 13 12

GFSSGP_925_spd_210.txt.gz
Wind_Speed
19 18 12 1 1 0 2 3 2 4 4 1 5 2 7 4 2 2 12 12 18 19 15 12 12 11 11 11 11 11 11 11 12 11 12 12 11 11 11 11 10 9 9 8 8 7 6 5 5
20 12 1 0 2 1 2 3 7 4 5 12 7 4 5 4 3 9 9 19 19 18 15 13 12 11 10 12 11 11 11 12 11 11 11 11 11 10 9 9 9 8 7 6 5 4 3 2 1
15 2 2 2 1 2 2 4 6 11 8 4 5 5 3 2 7 12 12 20 19 18 16 13 12 11 11 11 11 11 11 9 10 10 9 9 9 9 8 8 8 7 5 4 4 2 1 1 3
6 1 2 2 5 2 3 8 10 10 5 7 9 8 5 5 8 8 24 20 19 17 15 13 12 12 11 10 11 10 9 9 9 7 8 8 8 8 7 5 5 4 3 3 2 1 3 4 5
1 1 3 3 5 3 6 10 11 5 6 7 2 3 4 2 10 22 21 20 20 18 14 12 11 13 11 10 10 9 9 9 8 6 7 6 5 4 3 3 2 1 1 0 2 4 4 4 4
1 1 4 3 5 5 3 9 8 5 6 7 6 5 2 9 23 22 20 19 17 17 15 12 13 12 12 9 10 9 9 8 6 4 4 4 4 3 1 0 1 1 1 2 4 5 5 5 3
1 3 4 3 3 2 5 7 5 6 6 2 10 5 3 7 22 23 19 18 17 16 14 13 11 11 10 9 9 8 7 7 6 3 1 2 2 1 3 3 2 2 2 2 4 6 6 7 3
1 2 0 3 1 1 5 2 5 6 4 11 7 7 6 11 24 21 18 17 16 15 13 12 11 12 11 10 7 8 5 4 3 1 1 1 0 2 3 3 2 3 4 3 3 3 5 6 1
1 3 2 4 7 4 5 5 2 6 12 4 4 6 13 27 26 21 18 16 15 13 13 12 12 11 10 9 8 6 5 3 2 3 5 2 1 2 4 4 3 7 6 4 2 3 4 5 2
2 1 5 6 6 3 10 8 9 4 7 3 6 13 28 26 23 19 16 13 16 15 14 12 11 10 10 9 7 5 3 2 3 5 6 5 6 5 6 4 3 3 4 5 3 1 3 3 4
3 4 5 3 8 8 8 6 5 9 4 6 15 18 21 23 19 18 18 22 21 16 14 14 12 11 10 9 6 5 4 3 4 5 5 8 8 8 8 6 5 5 5 4 4 5 3 4 3
4 11 6 5 5 6 8 7 4 7 5 11 16 20 18 18 17 18 18 20 17 17 15 14 13 12 10 7 6 4 4 4 5 5 5 6 8 7 9 10 9 7 5 4 3 3 3 2 1
3 5 10 6 7 6 8 4 0 4 6 16 17 17 16 13 17 17 23 21 18 18 16 15 14 12 9 6 4 3 3 4 4 4 7 7 8 10 10 11 12 9 4 7 5 4 4 3 4
4 4 3 6 7 5 6 2 4 3 12 16 19 17 14 14 18 15 18 21 21 19 17 15 15 11 9 6 3 2 5 4 4 6 9 8 8 10 8 8 12 14 9 7 5 4 3 3 2
2 4 7 9 3 4 10 2 3 6 12 17 15 13 12 10 15 17 21 24 24 21 18 18 16 13 10 6 6 4 4 5 4 6 6 7 9 7 8 9 9 11 8 7 7 8 7 3 2
5 4 4 2 4 4 6 6 3 11 16 15 16 13 11 7 14 17 25 25 24 22 21 18 15 13 10 8 9 5 4 5 5 5 5 6 7 5 5 6 7 10 10 8 5 6 9 6 1
6 3 2 1 5 7 5 5 6 12 14 14 14 15 13 9 11 15 24 27 25 24 22 19 17 15 12 12 10 6 4 5 4 5 6 6 6 7 5 7 7 8 9 8 8 8 9 8 3
3 2 1 3 2 3 5 3 5 11 13 16 16 15 16 15 14 21 23 27 25 25 24 20 20 18 15 13 12 7 7 5 7 4 3 3 5 6 5 6 5 5 8 9 10 12 14 16 12
4 2 3 3 5 5 6 5 13 15 9 12 14 15 15 19 20 22 24 26 28 29 27 25 24 24 20 17 13 8 8 7 9 7 4 3 2 2 3 4 4 3 7 9 6 8 8 9 9
3 1 5 5 4 5 4 10 8 15 17 20 19 17 17 14 13 18 26 28 29 31 33 29 29 28 24 21 17 12 10 9 9 10 7 4 2 3 3 4 4 4 6 7 6 4 3 7 4
3 4 3 5 4 2 3 6 4 9 10 12 13 16 17 19 17 16 22 27 30 30 33 34 34 31 27 24 20 14 11 8 6 12 10 7 4 3 1 3 4 3 4 5 6 6 2 2 9
5 7 3 4 3 3 3 5 5 7 17 15 15 16 17 18 17 14 21 24 30 33 33 36 37 32 29 27 24 20 15 12 11 14 11 6 6 3 1 1 2 3 2 3 5 5 3 0 4
9 4 5 3 4 2 3 0 7 5 5 14 20 20 20 20 19 19 22 29 30 31 35 38 37 33 32 30 27 22 17 13 10 13 11 8 6 5 4 3 2 3 3 3 4 4 5 3 2
4 3 6 5 4 1 7 6 7 5 9 9 19 22 22 21 21 17 27 28 29 30 33 38 38 36 32 33 30 25 21 15 12 12 11 10 9 7 5 6 6 5 2 2 1 1 3 4 4
6 6 2 3 1 5 2 5 13 8 11 11 18 23 25 23 20 19 19 24 27 30 33 35 38 39 34 32 31 30 26 20 17 15 11 9 10 8 5 7 10 8 5 4 3 1 2 3 4
6 9 6 6 3 4 3 6 7 10 10 7 13 21 22 23 21 21 20 28 31 32 33 34 36 38 39 35 32 31 30 27 23 18 15 10 10 9 6 9 9 10 8 6 5 4 2 1 2
4 4 6 5 1 2 4 7 9 9 9 4 6 11 18 22 22 23 22 30 33 35 36 37 37 39 41 41 37 33 32 31 29 24 20 16 11 11 8 6 8 10 10 10 7 6 5 3 2
8 8 3 3 6 5 5 5 6 7 7 2 5 10 16 19 19 19 19 30 33 36 38 37 39 42 43 42 41 38 35 33 32 27 24 21 18 13 10 9 10 11 12 12 10 9 9 8 6
2 3 5 5 5 6 2 8 7 10 11 8 8 13 16 20 20 20 20 31 36 36 36 38 37 36 36 41 42 40 38 36 34 32 28 24 21 18 15 14 12 13 15 15 14 13 12 11 9
5 10 10 6 6 3 4 13 5 9 5 6 9 13 12 16 17 16 16 24 29 35 36 38 38 38 38 43 41 43 41 38 37 35 33 28 25 23 20 18 15 15 17 19 18 17 16 15 14